EVA126 RCYU-RCKH

Flight info

Callsign EVA126
Flight time 0h 44m
Altitude 26000
Route WAGON1B WAGON B591 JICHI DCT DONNA DCT DULAN DCT GID DCT LATIS DCT TUNNY DCT ORRIS DCT BUSBY DCT HCN HCN1H
Aircraft A333/H-SDE3GHIJ2J3J5M1RVWXY/LB2D1

Departure

Time 2026-05-04 04:40
Airport Hualien Chiashan Airport (RCYU)

Arrival

Time 2026-05-04 05:25
Airport Kaohsiung International Airport (RCKH)
Time Latitude Longitude Altitude Speed Heading
2026-05-04 03:54 24.02518 121.61486 121 ft 0 kts 298°
2026-05-04 04:23 24.02517 121.61487 118 ft 1 kts 298°
2026-05-04 04:23 24.02512 121.61498 117 ft 0 kts 297°
2026-05-04 04:23 24.02507 121.61510 117 ft 2 kts 280°
2026-05-04 04:23 24.02506 121.61526 117 ft 2 kts 256°
2026-05-04 04:24 24.02512 121.61541 117 ft 2 kts 234°
2026-05-04 04:24 24.02522 121.61553 117 ft 2 kts 212°
2026-05-04 04:24 24.02527 121.61556 117 ft 1 kts 205°
2026-05-04 04:24 24.02528 121.61557 117 ft 0 kts 205°
2026-05-04 04:28 24.02513 121.61549 117 ft 13 kts 205°
2026-05-04 04:28 24.02470 121.61526 117 ft 4 kts 205°
2026-05-04 04:29 24.02423 121.61503 117 ft 2 kts 205°
2026-05-04 04:29 24.02392 121.61487 117 ft 10 kts 205°
2026-05-04 04:29 24.02299 121.61441 117 ft 19 kts 204°
2026-05-04 04:29 24.02151 121.61363 117 ft 25 kts 201°
2026-05-04 04:30 24.01987 121.61283 118 ft 26 kts 205°
2026-05-04 04:30 24.01822 121.61201 118 ft 23 kts 197°
2026-05-04 04:30 24.01693 121.61167 118 ft 6 kts 190°
2026-05-04 04:30 24.01577 121.61145 118 ft 39 kts 190°
2026-05-04 04:31 24.01497 121.61124 118 ft 6 kts 194°
2026-05-04 04:31 24.01450 121.61111 118 ft 7 kts 196°
2026-05-04 04:31 24.01405 121.61091 118 ft 7 kts 207°
2026-05-04 04:31 24.01389 121.61082 118 ft 0 kts 207°
2026-05-04 04:32 24.01385 121.61079 118 ft 0 kts 207°
2026-05-04 04:32 24.01378 121.61076 118 ft 1 kts 207°
2026-05-04 04:32 24.01367 121.61070 118 ft 2 kts 207°
2026-05-04 04:32 24.01353 121.61062 118 ft 0 kts 207°
2026-05-04 04:33 24.01350 121.61060 118 ft 1 kts 207°
2026-05-04 04:33 24.01342 121.61056 118 ft 0 kts 205°
2026-05-04 04:33 24.01336 121.61054 118 ft 1 kts 194°
2026-05-04 04:33 24.01325 121.61053 118 ft 0 kts 180°
2026-05-04 04:34 24.01324 121.61053 117 ft 0 kts 176°
2026-05-04 04:35 24.01321 121.61054 117 ft 0 kts 176°
2026-05-04 04:35 24.01311 121.61055 117 ft 1 kts 176°
2026-05-04 04:35 24.01297 121.61056 117 ft 0 kts 175°
2026-05-04 04:38 24.01285 121.61072 116 ft 5 kts 107°
2026-05-04 04:38 24.01306 121.61109 116 ft 5 kts 42°
2026-05-04 04:38 24.01335 121.61128 116 ft 0 kts 30°
2026-05-04 04:39 24.01337 121.61130 116 ft 2 kts 30°
2026-05-04 04:40 24.01534 121.61234 116 ft 69 kts 25°
2026-05-04 04:40 24.02201 121.61594 116 ft 139 kts 25°
2026-05-04 04:40 24.03134 121.62103 661 ft 151 kts 24°
2026-05-04 04:40 24.03982 121.62616 1339 ft 135 kts 34°
2026-05-04 04:41 24.04596 121.63377 1813 ft 139 kts 55°
2026-05-04 04:41 24.04891 121.64379 2339 ft 144 kts 79°
2026-05-04 04:41 24.04772 121.65468 2877 ft 148 kts 103°
2026-05-04 04:41 24.04224 121.66430 3372 ft 155 kts 130°
2026-05-04 04:42 24.03292 121.67065 3850 ft 163 kts 160°
2026-05-04 04:42 24.02158 121.67161 4300 ft 169 kts 190°
2026-05-04 04:42 24.00989 121.66941 4710 ft 177 kts 191°
2026-05-04 04:42 23.99751 121.66705 5215 ft 180 kts 190°
2026-05-04 04:43 23.98531 121.66488 5791 ft 180 kts 191°
2026-05-04 04:43 23.97247 121.66267 6215 ft 192 kts 189°
2026-05-04 04:43 23.95867 121.66358 6645 ft 209 kts 167°
2026-05-04 04:43 23.94436 121.66787 7076 ft 223 kts 166°
2026-05-04 04:44 23.92882 121.67257 7458 ft 238 kts 166°
2026-05-04 04:44 23.91219 121.67771 7836 ft 254 kts 166°
2026-05-04 04:44 23.89476 121.68314 8166 ft 270 kts 166°
2026-05-04 04:44 23.87575 121.68908 8456 ft 287 kts 166°
2026-05-04 04:45 23.85595 121.69527 8705 ft 304 kts 166°
2026-05-04 04:45 23.83503 121.70180 8901 ft 321 kts 166°
2026-05-04 04:45 23.81309 121.70866 9056 ft 336 kts 166°
2026-05-04 04:47 23.66716 121.75419 10131 ft 373 kts 166°
2026-05-04 04:47 23.64191 121.76205 10448 ft 374 kts 167°
2026-05-04 04:47 23.61701 121.76981 10725 ft 375 kts 167°
2026-05-04 04:47 23.59157 121.77595 11033 ft 371 kts 178°
2026-05-04 04:48 23.56616 121.77341 11289 ft 366 kts 198°
2026-05-04 04:49 23.46945 121.74174 12733 ft 360 kts 200°
2026-05-04 04:49 23.44546 121.73396 13113 ft 359 kts 200°
2026-05-04 04:49 23.42159 121.72623 13462 ft 359 kts 200°
2026-05-04 04:49 23.39810 121.71768 13809 ft 355 kts 204°
2026-05-04 04:50 23.37421 121.71015 14125 ft 357 kts 199°
2026-05-04 04:50 23.35039 121.70291 14442 ft 356 kts 200°
2026-05-04 04:50 23.32641 121.69539 14767 ft 355 kts 200°
2026-05-04 04:50 23.30288 121.68790 15124 ft 353 kts 201°
2026-05-04 04:51 23.27931 121.68035 15475 ft 353 kts 201°
2026-05-04 04:51 23.25562 121.67275 15832 ft 353 kts 201°
2026-05-04 04:51 23.23199 121.66515 16208 ft 351 kts 201°
2026-05-04 04:51 23.20870 121.65767 16567 ft 350 kts 201°
2026-05-04 04:52 23.18547 121.65021 16941 ft 348 kts 201°
2026-05-04 04:52 23.16222 121.64274 17255 ft 347 kts 201°
2026-05-04 04:52 23.13866 121.63513 17350 ft 354 kts 201°
2026-05-04 04:52 23.11499 121.62753 17490 ft 360 kts 201°
2026-05-04 04:53 23.09046 121.61963 17655 ft 371 kts 201°
2026-05-04 04:53 23.06503 121.61145 17787 ft 386 kts 201°
2026-05-04 04:53 23.03792 121.60276 17905 ft 400 kts 201°
2026-05-04 04:53 23.01087 121.59406 18004 ft 411 kts 200°
2026-05-04 04:54 22.98453 121.58227 18173 ft 415 kts 213°
2026-05-04 04:54 22.96113 121.56447 18706 ft 410 kts 219°
2026-05-04 04:54 22.93827 121.54702 19763 ft 395 kts 218°
2026-05-04 04:54 22.91596 121.53001 20411 ft 392 kts 218°
2026-05-04 04:55 22.89352 121.51296 20863 ft 394 kts 218°
2026-05-04 04:55 22.87111 121.49596 21198 ft 397 kts 218°
2026-05-04 04:55 22.84846 121.47879 20949 ft 393 kts 218°
2026-05-04 04:55 22.82609 121.46186 21063 ft 388 kts 218°
2026-05-04 04:56 22.80384 121.44500 21055 ft 391 kts 218°
2026-05-04 04:56 22.78150 121.42810 21035 ft 390 kts 218°
2026-05-04 04:56 22.75950 121.41145 21043 ft 390 kts 218°
2026-05-04 04:56 22.73696 121.39441 21040 ft 391 kts 218°
2026-05-04 04:57 22.71468 121.37757 21034 ft 392 kts 218°
2026-05-04 04:57 22.69271 121.36043 21026 ft 391 kts 219°
2026-05-04 04:57 22.67054 121.34310 20996 ft 387 kts 219°
2026-05-04 04:57 22.64899 121.32627 20444 ft 383 kts 219°
2026-05-04 04:58 22.62726 121.30926 19462 ft 389 kts 218°
2026-05-04 04:58 22.60528 121.29209 19649 ft 394 kts 218°
2026-05-04 04:58 22.58284 121.27458 20220 ft 394 kts 218°
2026-05-04 04:58 22.56064 121.25726 20749 ft 395 kts 218°
2026-05-04 04:59 22.53864 121.24010 21059 ft 392 kts 218°
2026-05-04 04:59 22.51623 121.22263 20985 ft 393 kts 218°
2026-05-04 04:59 22.49431 121.20556 21013 ft 391 kts 218°
2026-05-04 04:59 22.47204 121.18819 21035 ft 393 kts 218°
2026-05-04 05:00 22.45010 121.17112 21017 ft 392 kts 218°
2026-05-04 05:00 22.42805 121.15395 21023 ft 391 kts 218°
2026-05-04 05:00 22.38368 121.11943 21018 ft 393 kts 218°
2026-05-04 05:01 22.36120 121.10195 20999 ft 393 kts 218°
2026-05-04 05:01 22.33907 121.08476 21007 ft 393 kts 218°
2026-05-04 05:01 22.31702 121.06761 21005 ft 392 kts 218°
2026-05-04 05:01 22.29470 121.05029 21016 ft 393 kts 218°
2026-05-04 05:02 22.27268 121.03320 21010 ft 393 kts 218°
2026-05-04 05:02 22.25054 121.01602 20983 ft 393 kts 218°
2026-05-04 05:02 22.22809 120.99860 21004 ft 392 kts 218°
2026-05-04 05:02 22.20593 120.98141 21026 ft 393 kts 218°
2026-05-04 05:03 22.18362 120.96413 21005 ft 393 kts 218°
2026-05-04 05:03 22.16164 120.94710 21004 ft 394 kts 218°
2026-05-04 05:04 22.09793 120.89217 20997 ft 389 kts 236°
2026-05-04 05:04 22.08597 120.86622 20999 ft 388 kts 253°
2026-05-04 05:04 22.08205 120.83731 20969 ft 384 kts 266°
2026-05-04 05:06 22.06828 120.63700 14717 ft 351 kts 265°
2026-05-04 05:06 22.06647 120.61166 13932 ft 331 kts 265°
2026-05-04 05:06 22.06473 120.58765 13308 ft 312 kts 265°
2026-05-04 05:07 22.06311 120.56531 12801 ft 294 kts 265°
2026-05-04 05:07 22.06156 120.54390 12386 ft 276 kts 265°
2026-05-04 05:07 22.06013 120.52414 12084 ft 258 kts 265°
2026-05-04 05:09 22.11955 120.41451 9531 ft 228 kts 317°
2026-05-04 05:09 22.13163 120.40337 9293 ft 227 kts 317°
2026-05-04 05:10 22.14373 120.39222 9037 ft 227 kts 318°
2026-05-04 05:10 22.15583 120.38107 8940 ft 226 kts 317°
2026-05-04 05:10 22.16770 120.37013 8771 ft 224 kts 317°
2026-05-04 05:10 22.17951 120.35923 8496 ft 226 kts 318°
2026-05-04 05:11 22.19147 120.34819 8255 ft 226 kts 317°
2026-05-04 05:11 22.20334 120.33724 8042 ft 224 kts 318°
2026-05-04 05:11 22.21532 120.32635 7800 ft 224 kts 323°
2026-05-04 05:11 22.22990 120.32069 7685 ft 228 kts 356°
2026-05-04 05:12 22.24543 120.32321 7559 ft 225 kts 12°
2026-05-04 05:12 22.26086 120.32688 7287 ft 226 kts 10°
2026-05-04 05:12 22.27618 120.33041 7064 ft 225 kts 11°
2026-05-04 05:12 22.29163 120.33396 6865 ft 223 kts 11°
2026-05-04 05:13 22.30676 120.33742 6663 ft 222 kts 11°
2026-05-04 05:13 22.32194 120.34090 6445 ft 222 kts 11°
2026-05-04 05:13 22.33705 120.34436 6241 ft 221 kts 11°
2026-05-04 05:13 22.35205 120.34780 6031 ft 220 kts 11°
2026-05-04 05:14 22.36719 120.35126 5803 ft 221 kts 11°
2026-05-04 05:14 22.38200 120.35484 5596 ft 220 kts 18°
2026-05-04 05:14 22.39468 120.36397 5327 ft 221 kts 51°
2026-05-04 05:14 22.40183 120.37856 5123 ft 220 kts 65°
2026-05-04 05:15 22.40846 120.39352 4910 ft 219 kts 64°
2026-05-04 05:15 22.41509 120.40824 4763 ft 216 kts 64°
2026-05-04 05:15 22.42165 120.42273 4586 ft 213 kts 64°
2026-05-04 05:15 22.42795 120.43660 4528 ft 198 kts 64°
2026-05-04 05:16 22.43342 120.44958 4455 ft 185 kts 70°
2026-05-04 05:16 22.43783 120.46246 4287 ft 179 kts 70°
2026-05-04 05:16 22.44221 120.47501 4067 ft 177 kts 70°
2026-05-04 05:16 22.44653 120.48742 3841 ft 175 kts 71°
2026-05-04 05:17 22.45077 120.49959 3616 ft 174 kts 70°
2026-05-04 05:17 22.45493 120.51153 3585 ft 159 kts 71°
2026-05-04 05:17 22.45878 120.52261 3540 ft 156 kts 71°
2026-05-04 05:17 22.46250 120.53326 3516 ft 151 kts 71°
2026-05-04 05:18 22.46611 120.54380 3604 ft 151 kts 70°
2026-05-04 05:18 22.47191 120.55337 3481 ft 153 kts 38°
2026-05-04 05:18 22.48227 120.55623 3565 ft 159 kts
2026-05-04 05:18 22.49351 120.55643 3565 ft 162 kts
2026-05-04 05:19 22.50468 120.55680 3544 ft 160 kts
2026-05-04 05:19 22.51585 120.55718 3550 ft 160 kts
2026-05-04 05:19 22.52698 120.55771 3553 ft 160 kts
2026-05-04 05:19 22.53681 120.56248 3533 ft 154 kts 35°
2026-05-04 05:20 22.54758 120.56436 3521 ft 162 kts 351°
2026-05-04 05:20 22.55691 120.55765 3535 ft 166 kts 308°
2026-05-04 05:20 22.56393 120.54773 3568 ft 167 kts 311°
2026-05-04 05:20 22.57096 120.53742 3240 ft 174 kts 294°
2026-05-04 05:21 22.57221 120.52486 2974 ft 169 kts 268°
2026-05-04 05:21 22.57215 120.51231 2735 ft 166 kts 271°
2026-05-04 05:21 22.57239 120.49983 2498 ft 162 kts 272°
2026-05-04 05:21 22.57269 120.48799 2256 ft 156 kts 273°
2026-05-04 05:22 22.57303 120.47621 2048 ft 155 kts 273°
2026-05-04 05:22 22.57337 120.46467 1849 ft 155 kts 275°
2026-05-04 05:22 22.57375 120.45293 1648 ft 154 kts 275°
2026-05-04 05:22 22.57413 120.44163 1454 ft 148 kts 275°
2026-05-04 05:23 22.57451 120.43041 1262 ft 147 kts 274°
2026-05-04 05:23 22.57486 120.41945 1070 ft 144 kts 274°
2026-05-04 05:23 22.57522 120.40864 889 ft 141 kts 272°
2026-05-04 05:23 22.57554 120.39793 705 ft 141 kts 272°
2026-05-04 05:24 22.57591 120.38748 531 ft 140 kts 273°
2026-05-04 05:24 22.57621 120.37707 354 ft 137 kts 270°
2026-05-04 05:24 22.57652 120.36664 173 ft 139 kts 271°
2026-05-04 05:24 22.57699 120.35670 65 ft 123 kts 271°
2026-05-04 05:25 22.57719 120.34852 44 ft 84 kts 269°
2026-05-04 05:25 22.57724 120.34541 43 ft 0 kts 275°
2026-05-04 05:26 22.57726 120.34512 43 ft 13 kts 274°
2026-05-04 05:26 22.57724 120.34393 43 ft 16 kts 267°
2026-05-04 05:26 22.57730 120.34270 43 ft 16 kts 275°
2026-05-04 05:26 22.57713 120.34163 43 ft 11 kts 213°
2026-05-04 05:27 22.57642 120.34133 43 ft 10 kts 197°
2026-05-04 05:28 22.57282 120.33999 43 ft 3 kts 272°
2026-05-04 05:29 22.57283 120.33978 43 ft 0 kts 272°
2026-05-04 05:29 22.57283 120.33976 43 ft 0 kts 272°
2026-05-04 05:29 22.57283 120.33975 43 ft 0 kts 272°